Wind_Speed
1 1 1 2 5 8 7 4 6 4 8 6 9 12 11 10 13 14 13 11 10 10 14 14 15 13 11 12 10 9 10 11 11 12 14 16 21 21 19 16 11 12 12 8
4 1 3 3 5 7 6 3 9 5 12 9 0 7 11 14 16 16 14 12 11 14 17 16 15 13 13 12 10 9 13 14 14 15 16 17 21 21 18 14 11 12 10 8
3 3 3 5 9 11 6 5 7 8 8 6 6 11 15 16 17 16 14 13 12 14 16 18 17 14 13 10 9 11 14 16 16 17 18 17 21 19 15 13 12 10 10 7
2 1 2 4 2 2 10 6 13 3 4 6 2 3 8 14 18 15 14 13 11 15 14 13 12 11 10 8 9 13 15 14 16 19 18 17 20 17 14 14 12 10 8 6
3 3 5 4 4 6 7 6 12 12 5 3 4 3 5 14 14 15 14 14 13 13 11 8 9 7 5 6 8 9 13 17 17 19 18 15 16 16 16 12 9 7 5 5
3 2 5 5 2 3 3 4 2 9 7 8 8 4 6 13 15 12 12 11 10 9 9 9 7 4 2 4 9 12 13 15 18 18 15 14 16 16 14 11 10 7 6 5
2 3 7 6 1 2 3 4 2 7 7 12 7 6 2 5 8 15 14 14 14 12 10 7 6 3 2 7 9 10 15 18 18 15 15 17 15 13 13 11 9 8 7 6
3 1 6 5 3 5 4 2 2 7 9 14 10 6 4 6 9 16 18 17 17 15 11 8 4 3 5 7 9 14 16 16 13 15 17 13 10 10 11 8 7 8 8 8
7 4 3 5 4 2 1 2 2 3 5 8 6 7 8 9 10 14 17 14 13 11 9 4 2 3 6 8 11 15 15 13 11 14 13 8 8 9 8 6 7 7 8 9
1 2 7 10 9 8 7 10 5 6 6 9 12 10 8 10 12 14 13 13 8 8 5 2 3 5 8 9 13 14 12 11 12 13 14 11 9 10 7 7 7 7 10 10
4 8 5 7 9 10 8 5 6 5 5 9 10 12 14 13 12 16 15 6 8 6 4 3 4 7 8 11 12 8 8 11 13 14 14 13 12 11 9 8 7 7 9 10
5 8 4 5 3 2 3 4 5 6 2 2 8 11 15 10 12 12 9 11 7 5 3 4 6 9 10 9 6 7 9 9 13 15 14 12 12 10 13 12 10 10 10 12
5 1 4 4 6 3 4 6 2 4 5 9 11 16 17 12 13 9 9 8 7 5 4 5 7 10 10 6 6 10 11 12 12 12 12 12 9 10 13 13 13 13 12 12
4 2 4 1 3 6 9 15 21 21 21 22 22 20 15 9 3 9 10 8 6 5 6 7 9 8 4 4 9 11 12 13 15 14 12 12 11 12 13 14 14 12 13 13
9 2 4 8 10 11 14 17 17 15 15 18 17 12 7 7 13 10 7 7 6 7 8 9 9 5 5 9 11 13 13 13 16 16 16 16 17 17 13 12 13 12 13 15
6 10 11 11 12 13 14 14 14 8 10 10 7 10 10 10 9 7 7 8 8 10 10 10 9 9 10 11 13 13 12 16 19 18 16 15 15 14 11 11 12 14 15 15
4 7 10 12 12 12 12 10 10 6 3 6 9 7 8 9 9 10 11 10 12 16 15 11 14 14 14 10 10 11 13 17 19 20 15 15 16 17 16 14 14 16 15 18
16 15 14 12 11 10 6 5 6 5 5 6 5 6 7 8 10 13 13 13 14 17 18 17 15 15 12 12 12 15 18 19 18 17 19 19 18 19 19 16 16 17 17 18
19 16 17 15 12 9 5 3 3 4 5 6 6 7 7 10 12 13 14 15 17 16 21 15 13 13 15 17 18 20 20 21 19 18 19 20 17 16 18 17 18 18 18 17
10 8 7 5 3 3 3 4 5 6 6 6 6 7 10 12 10 11 12 15 19 20 19 17 14 13 14 15 15 16 18 20 19 19 20 19 17 16 17 21 20 18 19 19
6 6 6 7 8 9 9 9 10 11 11 10 10 13 14 17 17 16 12 13 23 19 16 14 13 12 13 15 16 18 21 21 20 19 19 18 17 16 17 20 22 23 23 25
3 5 6 7 9 11 13 12 12 13 14 15 15 16 16 19 19 18 18 17 21 17 16 14 14 14 16 17 16 17 18 20 20 18 18 16 15 14 14 16 18 20 22 24
4 7 8 9 8 7 10 16 17 15 15 17 18 20 18 17 14 13 15 16 21 22 22 22 23 23 19 15 14 16 17 18 18 18 13 14 14 14 15 16 17 19 20 21
9 10 10 10 11 16 16 18 20 17 16 15 15 16 19 22 22 15 20 25 25 26 24 24 25 19 14 12 11 11 13 14 14 17 17 17 16 15 16 18 19 20 21 21
13 12 14 14 13 12 14 16 15 16 18 18 18 18 19 19 21 29 27 27 26 25 23 21 22 19 11 6 8 11 13 12 12 12 12 12 12 13 14 15 18 23 26 24
12 12 11 12 11 12 13 14 15 16 19 19 19 20 23 24 24 26 28 30 29 27 22 16 7 3 2 6 8 8 8 9 10 11 12 13 15 15 17 20 22 23 24 25
11 11 9 7 10 11 14 14 14 16 18 20 22 24 24 24 27 27 29 28 25 12 2 3 5 9 9 8 8 8 8 9 11 13 14 15 17 18 20 22 24 26 27 27
Wind_Direction
104 17 249 219 180 186 203 176 191 225 216 242 230 216 200 178 162 165 176 178 181 182 189 193 196 210 233 230 245 262 285 285 291 304 317 327 332 331 329 330 326 325 310 317
186 345 14 275 236 205 229 225 252 248 268 218 110 153 175 183 176 181 186 192 192 196 201 206 208 223 222 239 257 278 284 288 294 301 310 320 327 327 323 324 311 319 306 335
241 2 9 318 224 199 191 205 201 213 239 173 198 206 199 187 189 190 194 197 198 201 202 213 222 226 230 247 268 285 296 295 295 306 309 309 323 323 314 310 299 300 301 299
164 27 251 243 174 186 218 231 216 254 208 200 234 198 192 195 190 197 197 200 199 198 207 222 225 223 238 253 284 301 303 303 307 312 303 304 320 319 315 310 299 286 279 275
159 207 304 286 200 186 184 273 211 222 190 160 120 115 246 205 204 201 197 197 197 197 209 209 195 211 227 284 307 312 313 312 309 311 302 299 314 314 315 310 313 288 245 207
134 188 233 247 261 195 163 283 223 197 160 164 152 175 243 191 198 196 189 184 172 178 165 159 159 182 245 301 314 320 319 316 315 313 299 298 309 307 309 302 296 270 220 215
153 230 283 253 292 170 109 257 187 183 173 167 195 204 144 153 171 171 159 150 149 137 138 151 160 180 300 313 313 312 311 310 308 306 304 300 296 296 302 297 279 234 218 238
110 187 272 182 126 172 227 278 235 198 194 195 211 158 164 143 141 141 142 142 138 138 140 158 180 279 299 295 306 312 312 312 314 320 316 299 283 296 302 287 238 222 226 248
196 221 238 221 236 228 202 269 254 234 249 231 213 191 152 146 139 138 134 132 136 137 139 172 247 279 279 290 304 313 315 317 317 324 321 295 289 294 286 258 228 225 244 257
122 230 235 238 262 257 231 242 233 232 249 199 217 172 160 143 141 133 132 139 144 142 158 199 264 291 293 291 309 313 318 317 315 322 321 294 287 287 259 234 224 253 268 267
261 277 271 260 237 257 264 243 255 248 237 226 197 178 161 155 147 142 134 176 180 172 185 241 291 301 304 310 313 314 316 320 316 317 319 298 278 274 243 225 243 280 283 270
229 239 196 251 299 297 270 274 274 236 213 143 173 149 136 121 123 125 182 171 177 191 220 270 297 305 316 326 313 307 292 301 316 317 315 299 283 263 244 245 258 278 276 278
255 86 221 274 291 300 300 341 25 95 99 99 97 118 111 99 131 190 191 183 192 219 248 284 299 304 329 319 292 292 291 292 306 304 300 301 282 259 254 250 254 266 264 274
260 242 280 78 360 33 83 84 87 85 90 92 90 79 88 103 212 229 215 219 227 240 260 286 291 314 328 303 293 293 293 296 296 289 288 284 280 279 267 250 252 265 265 271
0 313 70 93 79 80 93 98 89 85 80 78 81 100 149 215 232 235 237 234 253 257 271 273 272 316 295 288 294 295 295 291 296 292 290 284 279 283 263 251 252 261 268 268
40 63 75 82 93 90 91 89 88 82 92 113 152 201 225 245 254 257 250 259 247 259 269 267 293 303 285 291 298 297 296 303 297 286 287 286 273 263 250 251 259 264 265 258
124 79 86 88 87 87 87 85 100 127 161 223 243 262 253 256 258 261 269 275 266 266 269 275 287 289 284 284 299 298 302 303 307 287 289 290 275 254 250 251 259 263 264 264
82 85 90 95 97 94 97 124 176 220 271 296 296 279 271 254 259 277 290 294 282 276 275 271 280 286 273 268 275 298 299 295 297 287 289 283 276 262 247 251 257 259 260 265
86 93 102 117 131 147 176 248 284 298 312 318 312 303 290 283 285 291 297 295 290 285 282 280 269 283 274 276 284 290 294 294 293 290 284 284 280 267 248 249 256 255 256 260
99 106 115 111 88 60 33 22 351 342 339 323 310 306 314 320 323 313 303 288 283 280 287 278 273 281 295 299 299 298 298 297 288 288 286 280 280 272 255 252 255 258 256 255
75 54 51 40 30 33 25 12 1 359 353 346 335 323 317 311 309 307 286 278 300 307 298 279 272 290 300 301 301 301 303 291 284 287 288 283 285 280 262 252 253 256 257 255
63 37 22 20 20 19 16 18 12 359 352 344 337 327 318 310 317 312 303 282 314 314 301 281 273 282 296 294 289 296 298 290 280 288 292 285 289 286 281 274 268 267 267 267
47 45 41 35 33 21 35 24 16 11 2 355 349 345 335 323 322 314 310 319 315 307 303 293 285 283 283 280 290 301 304 317 290 283 291 309 303 299 293 290 288 285 282 278
72 63 65 70 58 36 19 360 358 357 354 352 347 340 337 331 325 324 318 313 309 309 305 301 303 293 278 267 274 290 304 313 308 306 309 304 307 313 313 305 296 291 288 283
77 65 51 44 39 25 9 355 347 347 345 339 336 334 331 327 314 313 314 313 312 310 303 306 300 270 239 265 304 315 318 320 324 330 336 338 337 336 331 325 317 299 291 296
56 49 45 43 35 11 355 353 346 343 342 336 331 333 331 327 322 317 314 309 303 301 295 292 251 245 347 350 348 345 342 340 341 342 343 339 336 334 331 331 330 325 321 315
58 41 32 28 15 6 1 358 356 347 341 333 323 326 327 327 326 325 322 322 322 323 48 49 28 19 19 26 23 12 3 356 353 350 346 342 339 335 333 332 331 333 332 329
Height
822 822 817 812 813 818 815 816 817 811 816 804 803 807 814 821 826 829 834 838 842 844 847 848 850 851 853 855 857 857 857 857 856 855 853 851 849 846 842 839 836 834 832 831
822 825 824 816 812 814 816 816 814 815 807 798 805 810 816 818 823 826 830 833 837 840 842 844 846 848 849 852 854 854 854 853 853 851 850 848 845 842 839 836 834 832 830 828
822 834 828 822 806 804 807 806 800 809 789 801 806 807 806 813 818 821 824 828 831 833 837 840 842 844 846 849 850 850 850 849 848 847 845 844 841 838 835 833 831 829 827 826
825 843 823 792 797 797 796 797 795 796 795 797 799 804 805 808 811 816 820 822 826 830 833 836 839 842 844 845 846 846 846 845 844 843 841 839 837 834 831 829 827 825 824 823
824 825 813 789 797 798 797 785 785 788 793 800 806 805 802 804 806 808 813 818 822 826 830 833 836 839 841 842 843 843 842 841 840 838 836 834 833 830 828 825 823 822 821 821
844 822 816 793 791 791 789 793 780 785 793 802 802 803 789 794 800 806 812 816 820 825 828 831 834 836 838 839 840 839 839 838 836 834 831 829 828 826 824 822 820 819 819 819
854 820 811 794 792 792 799 790 785 785 789 797 795 787 789 792 797 802 809 814 818 825 829 831 832 834 835 836 836 836 835 833 831 829 827 824 822 821 820 818 817 817 817 817
851 831 809 794 793 796 784 784 784 785 785 787 783 790 792 795 798 802 807 813 815 821 825 829 830 831 832 833 833 832 831 829 826 824 821 819 818 817 816 815 815 815 816 815
809 799 790 790 786 783 785 784 782 784 783 785 789 790 792 796 800 804 808 814 816 819 823 827 828 828 829 829 829 827 826 824 822 820 818 815 815 813 812 812 813 814 814 813
803 786 789 786 783 781 780 780 779 780 780 783 783 788 793 797 801 806 810 812 815 817 821 824 824 825 825 825 824 822 821 821 820 817 814 813 812 810 809 809 810 811 810 809
799 786 783 779 778 775 775 776 777 777 778 778 781 784 788 794 798 802 805 813 817 817 819 821 821 822 821 820 818 819 819 818 816 814 812 809 808 807 806 806 807 807 806 806
786 772 775 773 772 774 774 773 773 775 777 778 780 784 790 798 803 805 808 811 815 816 816 817 818 819 817 815 815 816 815 813 811 810 808 806 804 803 802 803 803 803 802 802
771 773 773 772 773 773 773 773 773 775 778 783 787 790 795 801 803 807 811 811 811 813 814 814 814 815 812 811 813 812 811 809 807 805 804 802 800 800 799 799 799 798 798 797
773 774 772 773 773 777 777 780 781 784 786 788 792 800 803 805 809 811 810 811 810 810 811 811 811 809 808 809 809 807 806 805 803 800 799 798 797 796 795 794 794 793 793 793
775 774 777 780 782 784 785 786 788 793 797 799 802 806 809 810 809 809 809 809 808 808 808 808 807 803 805 806 805 803 801 800 798 795 793 792 791 790 789 789 789 788 788 788
782 781 783 785 786 790 793 795 796 802 802 806 806 806 806 807 807 807 807 806 806 805 806 806 802 801 801 801 799 798 797 796 794 791 788 786 786 785 784 784 783 783 782 782
783 789 792 794 796 798 800 802 804 805 806 806 805 806 806 805 805 805 804 803 802 802 801 799 799 798 797 795 795 794 793 791 789 785 782 781 780 778 777 777 777 777 776 775
790 793 795 798 801 804 806 805 804 804 805 805 804 804 804 804 803 802 801 800 799 797 795 795 795 793 790 790 789 788 786 784 782 779 776 774 772 770 769 770 769 769 769 769
798 800 802 803 803 803 804 804 804 804 804 804 803 803 802 801 801 800 798 796 794 792 789 790 789 787 786 785 784 782 780 778 776 773 770 767 765 763 762 761 761 761 762 762
804 804 804 804 804 804 805 805 805 805 805 803 802 801 799 797 796 795 794 793 790 788 786 784 783 782 781 779 778 776 774 772 769 766 763 761 758 756 754 754 754 754 754 753
807 808 808 808 807 807 807 806 805 804 803 802 802 800 799 796 795 793 791 788 783 782 780 778 777 777 776 774 773 771 768 765 763 760 757 754 752 749 747 746 746 745 744 743
807 808 808 809 809 810 809 807 807 806 804 803 801 799 797 794 791 788 786 783 778 776 775 773 772 770 769 767 765 763 761 758 755 753 751 749 747 745 743 741 739 738 736 735
808 809 810 810 810 811 811 810 808 807 804 803 801 798 795 792 789 786 780 778 776 773 770 767 765 763 761 760 759 758 756 753 749 747 745 744 742 741 739 736 734 732 730 728
809 811 812 812 812 811 811 811 808 808 805 802 800 798 794 789 784 784 780 774 770 767 763 761 758 756 755 754 753 753 751 749 747 744 742 740 739 737 735 732 729 727 724 721
814 815 815 814 813 815 815 813 811 807 803 800 798 796 793 790 787 778 775 770 766 762 757 754 752 749 747 748 748 748 747 745 743 741 739 737 735 733 730 728 724 721 718 715
816 817 818 818 818 818 817 814 811 807 804 800 797 794 790 786 782 776 771 766 761 756 752 749 748 746 744 744 744 744 744 743 741 739 737 735 732 729 726 723 719 715 711 706
819 820 820 820 820 819 817 815 811 808 805 802 796 793 788 783 778 773 767 762 756 751 749 748 747 747 745 743 742 743 743 742 740 738 736 733 730 726 722 718 714 710 704 699